Home   Weather   Palm Coast   Past weeks
Flag for USA

Past Weather in Palm Coast, Florida, USA — Yesterday and Last 2 Weeks

Now
74 °F

Mild.


Feels Like: 71 °F
Forecast: 74 / 67 °F
Wind: No wind

Location: Palm Coast - MADIS Station

Current Time: Oct 22, 2019 at 11:23:46 pm

Latest Report: Oct 22, 2019 at 10:46 pm


Visibility: N/A

Pressure: N/A

Humidity: 95%

Dew Point: 72 °F

Location of Palm CoastLocation

Past Weather in Palm Coast — Graph

°F

Palm Coast Temperature Yesterday

Maximum temperature yesterday: 83 °F (at 12:45 pm)
Minimum temperature yesterday: 66 °F (at 4:15 am)
Average temperature yesterday: 74 °F

High & Low Weather Summary for the Past Weeks

 TemperatureHumidityPressure
High90 °F (Oct 22, 3:15 pm)100% (Oct 21, 8:15 am)30.09 "Hg (Oct 21, 8:15 am)
Low59 °F (Oct 18, 1:32 am)58% (Oct 17, 4:31 pm)29.72 "Hg (Oct 19, 5:17 pm)
Average75 °F87%29.96 "Hg
* Reported Oct 7 9:02 pm — Oct 22 9:47 pm, Palm Coast. Weather by CustomWeather, © 2019

Note: Actual official high and low records may vary slightly from our data, if they occured in-between our weather recording intervals... More about our weather records

Advertising

Palm Coast Weather History for the Previous 24 Hours

Scroll right to see more
 ConditionsComfort  
Time TempWeatherWind HumidityBarometerVisibility
9:47 pm
Tue, Oct 22
76 °FMild.No wind93%N/AN/A
9:16 pm76 °FMild.No wind92%N/AN/A
8:32 pm77 °FMild.No wind90%N/AN/A
8:01 pm78 °FMild.No wind87%N/AN/A
7:16 pm80 °FMild.No wind83%N/AN/A
6:46 pm81 °FWarm.No wind79%N/AN/A
6:16 pm83 °FWarm.No wind76%N/AN/A
5:01 pm88 °FWarm.2 mph71%29.92 "HgN/A
4:47 pm89 °FWarm.2 mph67%29.91 "HgN/A
4:31 pm90 °FHot.1 mph66%N/AN/A
4:15 pm90 °FHot.2 mph65%29.91 "HgN/A
3:46 pm89 °FWarm.1 mph71%29.91 "HgN/A
3:30 pm89 °FWarm.4 mph68%29.90 "HgN/A
3:15 pm90 °FHot.2 mph71%29.90 "HgN/A
1:45 pm88 °FWarm.1 mph77%29.93 "HgN/A
1:30 pm86 °FWarm.2 mph79%29.94 "HgN/A
1:15 pm87 °FWarm.2 mph77%29.94 "HgN/A
12:45 pm85 °FWarm.3 mph80%29.95 "HgN/A
12:32 pm86 °FWarm.2 mph80%29.96 "HgN/A
12:01 pm85 °FWarm.3 mph82%29.97 "HgN/A
11:46 am83 °FWarm.1 mph86%29.98 "HgN/A
11:31 am83 °FWarm.2 mph86%29.98 "HgN/A
11:01 am81 °FWarm.2 mph89%29.99 "HgN/A
10:31 am80 °FMild.No wind94%29.99 "HgN/A
10:01 am78 °FMild.1 mph98%29.99 "HgN/A
9:45 am77 °FMild.No wind99%29.99 "HgN/A
9:30 am77 °FMild.1 mph99%30.00 "HgN/A
9:00 am76 °FMild.No wind100%29.99 "HgN/A
8:15 am75 °FMild.No wind100%N/AN/A
7:30 am76 °FMild.No wind100%29.98 "HgN/A
7:00 am76 °FMild.No wind100%N/AN/A
6:30 am75 °FMild.No wind100%N/AN/A
6:15 am75 °FMild.No wind100%N/AN/A
5:30 am75 °FMild.No wind99%29.98 "HgN/A
4:30 am75 °FMild.No wind99%29.97 "HgN/A
4:00 am75 °FMild.No wind99%29.97 "HgN/A
3:45 am75 °FMild.No wind99%29.97 "HgN/A
2:17 am75 °FMild.No wind99%29.99 "HgN/A
2:01 am75 °FMild.No wind99%29.99 "HgN/A
1:31 am75 °FMild.No wind99%29.99 "HgN/A
1:01 am75 °FMild.No wind99%29.99 "HgN/A
12:47 am75 °FMild.No wind99%30.00 "HgN/A
12:33 am76 °FMild.No wind99%30.00 "HgN/A
12:01 am76 °FMild.No wind99%N/AN/A
11:31 pm
Mon, Oct 21
75 °FMild.No wind99%30.00 "HgN/A
11:16 pm75 °FMild.No wind99%30.00 "HgN/A
Weather by CustomWeather, © 2019

See weather overview